Weather History for KRGK - October, 2011

Change the Weather History Date:

Friday, October 14, 2011

  Actual Average Record
Temperature  
Mean Temperature 48 °F -  
Max Temperature 57 °F 58 °F 75 °F (2005)
Min Temperature 39 °F 37 °F 28 °F (1998)
Degree Days  
Heating Degree Days 17    
Moisture  
Dew Point 39 °F    
Average Humidity 69    
Maximum Humidity 100    
Minimum Humidity 44    
Precipitation  
Precipitation 0.00 in - - ()
Sea Level Pressure  
Sea Level Pressure 29.67 in    
Wind  
Wind Speed 8 mph (WNW)    
Max Wind Speed 22 mph    
Max Gust Speed 34 mph    
Visibility 10 miles    
Events      
Averages and records for this station are not official NWS values.
T = Trace of Precipitation, MM = Missing Value Source: NWS Daily Summary

Daily Weather History Graph

Daily Weather History Graph

Search for Another Location

Airport or City:

Trip Planner

Search our weather history database for the weather conditions in past years. The results will help you decide how hot, cold, wet, or windy it might be!

Date:

Astronomy

Oct. 14, 2011 Rise Set
Actual Time 7:23 AM CDT 6:27 PM CDT
Civil Twilight 6:54 AM CDT 6:56 PM CDT
Nautical Twilight 6:20 AM CDT 7:30 PM CDT
Astronomical Twilight 5:46 AM CDT 8:04 PM CDT
Moon 7:32 PM CDT (10/14) 10:01 AM CDT (10/14)
Length of Visible Light 12h 02m
Length of Day
11h 04m
Waning Gibbous, 94% of the Moon is Illuminated
Oct 14
Waning Gibbous
Oct 19
Last Quarter
Oct 26
New
Nov 2
First Quarter
Nov 10
Full

Hourly Weather History & Observations

Time (CDT) Temp. Windchill Dew Point Humidity Pressure Visibility Wind Dir Wind Speed Gust Speed Precip Events Conditions
12:15 AM 42.8 °F - 39.2 °F 87% 29.62 in 10.0 mi Calm Calm - N/A   Clear
12:35 AM 44.6 °F 43.1 °F 41.0 °F 87% 29.63 in 10.0 mi West 3.5 mph - N/A   Clear
12:54 AM 42.8 °F - 39.2 °F 87% 29.63 in 10.0 mi Calm Calm - N/A   Clear
1:15 AM 44.6 °F 41.4 °F 41.0 °F 87% 29.63 in 10.0 mi West 5.8 mph - N/A   Clear
1:35 AM 44.6 °F 43.1 °F 42.8 °F 93% 29.63 in 10.0 mi WNW 3.5 mph - N/A   Clear
1:55 AM 42.8 °F - 39.2 °F 87% 29.63 in 10.0 mi Calm Calm - N/A   Clear
2:15 AM 42.8 °F - 41.0 °F 93% 29.63 in 10.0 mi Calm Calm - N/A   Clear
2:35 AM 39.2 °F - 39.2 °F 100% 29.63 in 10.0 mi Calm Calm - N/A   Clear
2:55 AM 39.2 °F - 37.4 °F 93% 29.63 in 7.0 mi Calm Calm - N/A   Clear
3:15 AM 39.2 °F - 37.4 °F 93% 29.63 in 7.0 mi Calm Calm - N/A   Clear
3:34 AM 39.2 °F 37.0 °F 37.4 °F 93% 29.63 in 10.0 mi WNW 3.5 mph - N/A   Clear
3:55 AM 42.8 °F 40.1 °F 42.8 °F 100% 29.63 in 10.0 mi WNW 4.6 mph - N/A   Clear
4:14 AM 42.8 °F 40.1 °F 42.8 °F 100% 29.63 in 10.0 mi WNW 4.6 mph - N/A   Scattered Clouds
4:35 AM 44.6 °F 41.4 °F 42.8 °F 93% 29.63 in 10.0 mi WNW 5.8 mph - N/A   Scattered Clouds
4:54 AM 44.6 °F 40.7 °F 42.8 °F 93% 29.64 in 10.0 mi WNW 6.9 mph - N/A   Mostly Cloudy
5:15 AM 46.4 °F 43.5 °F 44.6 °F 93% 29.64 in 10.0 mi WNW 5.8 mph - N/A   Mostly Cloudy
5:34 AM 46.4 °F 43.5 °F 44.6 °F 93% 29.64 in 10.0 mi WNW 5.8 mph - N/A   Mostly Cloudy
5:55 AM 46.4 °F 42.9 °F 44.6 °F 93% 29.64 in 10.0 mi WNW 6.9 mph - N/A   Mostly Cloudy
6:14 AM 46.4 °F 42.4 °F 44.6 °F 93% 29.64 in 10.0 mi WNW 8.1 mph - N/A   Mostly Cloudy
6:35 AM 46.4 °F 42.4 °F 44.6 °F 93% 29.64 in 10.0 mi WNW 8.1 mph - N/A   Mostly Cloudy
6:54 AM 48.2 °F - 44.6 °F 87% 29.64 in 10.0 mi WNW 12.7 mph 18.4 mph N/A   Scattered Clouds
7:15 AM 48.2 °F - 42.8 °F 82% 29.63 in 10.0 mi NW 11.5 mph 21.9 mph N/A   Clear
7:34 AM 48.2 °F - 44.6 °F 87% 29.64 in 10.0 mi NW 9.2 mph - N/A   Scattered Clouds
8:14 AM 48.2 °F - 41.0 °F 76% 29.66 in 10.0 mi NW 12.7 mph 19.6 mph N/A   Scattered Clouds
8:35 AM 48.2 °F - 39.2 °F 71% 29.66 in 10.0 mi NW 13.8 mph 21.9 mph N/A   Scattered Clouds
8:54 AM 48.2 °F - 39.2 °F 71% 29.66 in 10.0 mi NW 16.1 mph 21.9 mph N/A   Mostly Cloudy
9:15 AM 48.2 °F - 37.4 °F 66% 29.67 in 10.0 mi NNW 15.0 mph 28.8 mph N/A   Scattered Clouds
9:34 AM 50.0 °F - 37.4 °F 62% 29.67 in 10.0 mi WNW 15.0 mph 20.7 mph N/A   Scattered Clouds
9:55 AM 50.0 °F - 37.4 °F 62% 29.67 in 10.0 mi NW 11.5 mph 23.0 mph N/A   Scattered Clouds
10:14 AM 50.0 °F - 37.4 °F 62% 29.68 in 10.0 mi NW 11.5 mph 26.5 mph N/A   Scattered Clouds
10:35 AM 51.8 °F - 37.4 °F 58% 29.69 in 10.0 mi NW 11.5 mph 21.9 mph N/A   Scattered Clouds
10:54 AM 51.8 °F - 37.4 °F 58% 29.69 in 10.0 mi NW 16.1 mph 24.2 mph N/A   Scattered Clouds
11:15 AM 51.8 °F - 37.4 °F 58% 29.70 in 10.0 mi NW 11.5 mph 20.7 mph N/A   Scattered Clouds
11:34 AM 51.8 °F - 37.4 °F 58% 29.70 in 10.0 mi NW 13.8 mph 20.7 mph N/A   Scattered Clouds
11:55 AM 53.6 °F - 37.4 °F 54% 29.71 in 10.0 mi NW 12.7 mph 19.6 mph N/A   Scattered Clouds
12:14 PM 51.8 °F - 35.6 °F 54% 29.71 in 10.0 mi NW 16.1 mph 26.5 mph N/A   Scattered Clouds
12:35 PM 51.8 °F - 35.6 °F 54% 29.70 in 10.0 mi NW 15.0 mph 20.7 mph N/A   Clear
12:54 PM 53.6 °F - 37.4 °F 54% 29.70 in 10.0 mi NW 16.1 mph 25.3 mph N/A   Scattered Clouds
1:15 PM 53.6 °F - 35.6 °F 51% 29.70 in 10.0 mi WNW 17.3 mph 27.6 mph N/A   Scattered Clouds
1:35 PM 55.4 °F - 35.6 °F 47% 29.69 in 10.0 mi WNW 19.6 mph 31.1 mph N/A   Scattered Clouds
1:55 PM 55.4 °F - 35.6 °F 47% 29.69 in 10.0 mi WNW 20.7 mph 29.9 mph N/A   Scattered Clouds
2:15 PM 55.4 °F - 35.6 °F 47% 29.69 in 10.0 mi WNW 19.6 mph 25.3 mph N/A   Scattered Clouds
2:35 PM 55.4 °F - 35.6 °F 47% 29.69 in 10.0 mi WNW 20.7 mph 34.5 mph N/A   Scattered Clouds
2:54 PM 57.2 °F - 35.6 °F 44% 29.70 in 10.0 mi NW 18.4 mph 28.8 mph N/A   Scattered Clouds
3:15 PM 57.2 °F - 37.4 °F 48% 29.70 in 10.0 mi WNW 18.4 mph 28.8 mph N/A   Mostly Cloudy
3:34 PM 55.4 °F - 35.6 °F 47% 29.70 in 10.0 mi NW 21.9 mph 32.2 mph N/A   Mostly Cloudy
3:55 PM 55.4 °F - 35.6 °F 47% 29.71 in 10.0 mi NW 17.3 mph 28.8 mph N/A   Mostly Cloudy
4:14 PM 57.2 °F - 35.6 °F 44% 29.71 in 10.0 mi WNW 18.4 mph 28.8 mph N/A   Mostly Cloudy
4:35 PM 55.4 °F - 35.6 °F 47% 29.71 in 10.0 mi NW 17.3 mph 26.5 mph N/A   Mostly Cloudy
4:55 PM 55.4 °F - 35.6 °F 47% 29.71 in 10.0 mi WNW 19.6 mph 29.9 mph N/A   Scattered Clouds
5:15 PM 55.4 °F - 35.6 °F 47% 29.71 in 10.0 mi NW 17.3 mph 29.9 mph N/A   Mostly Cloudy
5:35 PM 55.4 °F - 35.6 °F 47% 29.72 in 10.0 mi NW 12.7 mph 25.3 mph N/A   Mostly Cloudy
5:55 PM 55.4 °F - 35.6 °F 47% 29.72 in 10.0 mi NW 11.5 mph 25.3 mph N/A   Mostly Cloudy
6:15 PM 53.6 °F - 37.4 °F 54% 29.72 in 10.0 mi WNW 11.5 mph 17.3 mph N/A   Scattered Clouds
6:34 PM 53.6 °F - 37.4 °F 54% 29.72 in 10.0 mi WNW 11.5 mph 24.2 mph N/A   Scattered Clouds
6:55 PM 53.6 °F - 37.4 °F 54% 29.72 in 10.0 mi WNW 10.4 mph 19.6 mph N/A   Scattered Clouds
7:15 PM 53.6 °F - 37.4 °F 54% 29.73 in 10.0 mi WNW 13.8 mph 19.6 mph N/A   Scattered Clouds
7:35 PM 53.6 °F - 39.2 °F 58% 29.73 in 10.0 mi West 16.1 mph 23.0 mph N/A   Mostly Cloudy
7:54 PM 53.6 °F - 41.0 °F 62% 29.73 in 10.0 mi WNW 17.3 mph 28.8 mph N/A   Scattered Clouds
8:15 PM 53.6 °F - 42.8 °F 67% 29.74 in 10.0 mi WNW 18.4 mph 27.6 mph N/A   Clear
8:35 PM 51.8 °F - 42.8 °F 71% 29.74 in 10.0 mi WNW 13.8 mph 19.6 mph N/A   Clear
8:55 PM 51.8 °F - 42.8 °F 71% 29.75 in 10.0 mi WNW 12.7 mph 19.6 mph N/A   Scattered Clouds
9:15 PM 51.8 °F - 42.8 °F 71% 29.75 in 10.0 mi WNW 10.4 mph - N/A   Mostly Cloudy
9:35 PM 51.8 °F - 41.0 °F 67% 29.76 in 10.0 mi NW 15.0 mph 25.3 mph N/A   Scattered Clouds
9:55 PM 51.8 °F - 37.4 °F 58% 29.77 in 10.0 mi NW 16.1 mph 20.7 mph N/A   Scattered Clouds
10:15 PM 51.8 °F - 35.6 °F 54% 29.78 in 10.0 mi NW 12.7 mph 21.9 mph N/A   Clear
10:34 PM 51.8 °F - 35.6 °F 54% 29.78 in 10.0 mi NW 12.7 mph 23.0 mph N/A   Clear
10:55 PM 51.8 °F - 35.6 °F 54% 29.78 in 10.0 mi WNW 13.8 mph 21.9 mph N/A   Clear
11:15 PM 51.8 °F - 35.6 °F 54% 29.79 in 10.0 mi NW 15.0 mph 25.3 mph N/A   Clear
11:35 PM 50.0 °F - 35.6 °F 58% 29.79 in 10.0 mi NW 12.7 mph 18.4 mph N/A   Clear
11:55 PM 48.2 °F - 37.4 °F 66% 29.79 in 10.0 mi WNW 10.4 mph - N/A   Clear